Time,TemperatureF,DewpointF,PressureIn,WindDirection,WindDirectionDegrees,WindSpeedMPH,WindSpeedGustMPH,Humidity,HourlyPrecipIn,Conditions,Clouds,dailyrainin,SoftwareType,DateUTC
2013-06-05 00:03:00,63.1,59.9,29.98,North,0,2.0,4.0,89,0.00,,,0.00,meteohub,2013-06-05 07:03:00,
2013-06-05 00:08:00,63.0,59.7,29.98,North,0,0.0,4.0,89,0.00,,,0.00,meteohub,2013-06-05 07:08:00,
2013-06-05 00:13:00,63.0,59.7,29.98,North,0,2.0,3.0,89,0.00,,,0.00,meteohub,2013-06-05 07:13:00,
2013-06-05 00:18:00,63.3,60.1,29.98,East,90,4.0,4.0,89,0.00,,,0.00,meteohub,2013-06-05 07:18:00,
2013-06-05 00:23:00,63.0,59.4,29.98,NE,45,4.0,6.0,88,0.00,,,0.00,meteohub,2013-06-05 07:23:00,
2013-06-05 00:28:00,63.1,59.5,29.98,ESE,113,3.0,6.0,88,0.00,,,0.00,meteohub,2013-06-05 07:28:00,
2013-06-05 00:33:00,63.0,59.4,29.98,North,0,2.0,6.0,88,0.00,,,0.00,meteohub,2013-06-05 07:33:00,
2013-06-05 00:38:00,63.0,59.4,29.98,North,0,0.0,6.0,88,0.00,,,0.00,meteohub,2013-06-05 07:38:00,
2013-06-05 00:43:00,63.0,59.7,29.98,NE,45,2.0,4.0,89,0.00,,,0.00,meteohub,2013-06-05 07:43:00,
2013-06-05 00:48:00,63.1,59.5,29.98,SSE,158,1.0,3.0,88,0.00,,,0.00,meteohub,2013-06-05 07:48:00,
2013-06-05 00:53:00,63.0,59.4,29.98,SSE,158,1.0,3.0,88,0.00,,,0.00,meteohub,2013-06-05 07:53:00,
2013-06-05 00:58:00,63.1,59.5,29.98,SSE,158,2.0,3.0,88,0.00,,,0.00,meteohub,2013-06-05 07:58:00,
2013-06-05 01:03:00,63.1,59.5,29.97,East,90,2.0,3.0,88,0.00,,,0.00,meteohub,2013-06-05 08:03:00,
2013-06-05 01:08:00,63.1,59.5,29.98,East,90,2.0,3.0,88,0.00,,,0.00,meteohub,2013-06-05 08:08:00,
2013-06-05 01:13:00,63.1,59.5,29.98,SE,135,3.0,3.0,88,0.00,,,0.00,meteohub,2013-06-05 08:13:00,
2013-06-05 01:18:00,63.1,59.5,29.98,SE,135,3.0,4.0,88,0.00,,,0.00,meteohub,2013-06-05 08:18:00,
2013-06-05 01:23:00,63.1,59.2,29.97,East,90,4.0,4.0,87,0.00,,,0.00,meteohub,2013-06-05 08:23:00,
2013-06-05 01:28:00,63.3,59.4,29.97,ESE,113,2.0,6.0,87,0.00,,,0.00,meteohub,2013-06-05 08:28:00,
2013-06-05 01:33:00,63.1,59.2,29.97,ESE,113,3.0,6.0,87,0.00,,,0.00,meteohub,2013-06-05 08:33:00,
2013-06-05 01:38:00,63.3,59.4,29.97,ESE,113,2.0,6.0,87,0.00,,,0.00,meteohub,2013-06-05 08:38:00,
2013-06-05 01:43:00,63.3,59.7,29.97,ESE,113,2.0,4.0,88,0.00,,,0.00,meteohub,2013-06-05 08:43:00,
2013-06-05 01:48:00,63.3,59.4,29.96,East,90,4.0,4.0,87,0.00,,,0.00,meteohub,2013-06-05 08:48:00,
2013-06-05 01:53:00,63.3,59.4,29.97,ESE,113,4.0,7.0,87,0.00,,,0.00,meteohub,2013-06-05 08:53:00,
2013-06-05 01:58:00,63.3,59.4,29.96,East,90,4.0,7.0,87,0.00,,,0.00,meteohub,2013-06-05 08:58:00,
2013-06-05 02:03:00,63.3,59.4,29.96,NE,45,4.0,7.0,87,0.00,,,0.00,meteohub,2013-06-05 09:03:00,
2013-06-05 02:08:00,63.3,59.4,29.97,NE,45,3.0,5.0,87,0.00,,,0.00,meteohub,2013-06-05 09:08:00,
2013-06-05 02:13:00,63.3,59.4,29.97,NE,45,2.0,5.0,87,0.00,,,0.00,meteohub,2013-06-05 09:13:00,
2013-06-05 02:18:00,63.3,59.4,29.97,NE,45,3.0,5.0,87,0.00,,,0.00,meteohub,2013-06-05 09:18:00,
2013-06-05 02:23:00,63.1,59.2,29.96,NE,45,1.0,3.0,87,0.00,,,0.00,meteohub,2013-06-05 09:23:00,
2013-06-05 02:28:00,63.3,59.4,29.96,NE,45,0.0,3.0,87,0.00,,,0.00,meteohub,2013-06-05 09:28:00,
2013-06-05 02:33:00,63.1,59.2,29.97,NE,45,0.0,3.0,87,0.00,,,0.00,meteohub,2013-06-05 09:33:00,
2013-06-05 02:38:00,63.3,59.4,29.97,NE,45,0.0,3.0,87,0.00,,,0.00,meteohub,2013-06-05 09:38:00,
2013-06-05 02:43:00,63.3,59.4,29.96,NE,45,2.0,2.0,87,0.00,,,0.00,meteohub,2013-06-05 09:43:00,
2013-06-05 02:48:00,63.3,59.4,29.97,NE,45,0.0,2.0,87,0.00,,,0.00,meteohub,2013-06-05 09:48:00,
2013-06-05 02:53:00,63.1,59.2,29.97,NE,45,2.0,2.0,87,0.00,,,0.00,meteohub,2013-06-05 09:53:00,
2013-06-05 02:58:00,63.3,59.4,29.97,NE,45,0.0,2.0,87,0.00,,,0.00,meteohub,2013-06-05 09:58:00,
2013-06-05 03:03:00,63.3,59.4,29.97,NE,45,0.0,2.0,87,0.00,,,0.00,meteohub,2013-06-05 10:03:00,
2013-06-05 03:08:00,63.1,59.2,29.97,NE,45,0.0,2.0,87,0.00,,,0.00,meteohub,2013-06-05 10:08:00,
2013-06-05 03:13:00,63.1,59.2,29.97,NE,45,1.0,2.0,87,0.00,,,0.00,meteohub,2013-06-05 10:13:00,
2013-06-05 03:18:00,63.3,59.4,29.97,NE,45,0.0,2.0,87,0.00,,,0.00,meteohub,2013-06-05 10:18:00,
2013-06-05 03:23:00,63.1,59.2,29.97,NE,45,2.0,2.0,87,0.00,,,0.00,meteohub,2013-06-05 10:23:00,
2013-06-05 03:28:00,63.3,59.4,29.97,NE,45,2.0,2.0,87,0.00,,,0.00,meteohub,2013-06-05 10:28:00,
2013-06-05 03:33:00,63.3,59.4,29.97,NE,45,0.0,2.0,87,0.00,,,0.00,meteohub,2013-06-05 10:33:00,
2013-06-05 03:38:00,63.3,59.4,29.97,NE,45,0.0,2.0,87,0.00,,,0.00,meteohub,2013-06-05 10:38:00,
2013-06-05 03:43:00,63.3,59.4,29.97,NE,45,0.0,2.0,87,0.00,,,0.00,meteohub,2013-06-05 10:43:00,
2013-06-05 03:48:00,63.3,59.4,29.97,NE,45,0.0,1.0,87,0.00,,,0.00,meteohub,2013-06-05 10:48:00,
2013-06-05 03:54:00,63.3,59.4,29.97,NE,45,0.0,1.0,87,0.00,,,0.00,meteohub,2013-06-05 10:54:00,
2013-06-05 03:59:00,63.3,59.7,29.97,NE,45,0.0,1.0,88,0.00,,,0.00,meteohub,2013-06-05 10:59:00,
2013-06-05 04:04:00,63.3,59.7,29.97,NE,45,0.0,1.0,88,0.00,,,0.00,meteohub,2013-06-05 11:04:00,
2013-06-05 04:09:00,63.3,59.7,29.97,NE,45,0.0,2.0,88,0.00,,,0.00,meteohub,2013-06-05 11:09:00,
2013-06-05 04:14:00,63.3,59.7,29.97,NE,45,2.0,2.0,88,0.00,,,0.00,meteohub,2013-06-05 11:14:00,
2013-06-05 04:19:00,63.3,59.7,29.97,NE,45,2.0,2.0,88,0.00,,,0.00,meteohub,2013-06-05 11:19:00,
2013-06-05 04:24:00,63.3,59.7,29.97,NE,45,2.0,4.0,88,0.00,,,0.00,meteohub,2013-06-05 11:24:00,
2013-06-05 04:29:00,63.3,59.7,29.97,NE,45,3.0,4.0,88,0.00,,,0.00,meteohub,2013-06-05 11:29:00,
2013-06-05 04:34:00,63.3,59.7,29.97,NE,45,4.0,4.0,88,0.00,,,0.00,meteohub,2013-06-05 11:34:00,
2013-06-05 04:39:00,63.3,59.7,29.97,NE,45,2.0,4.0,88,0.00,,,0.00,meteohub,2013-06-05 11:39:00,
2013-06-05 04:44:00,63.3,59.7,29.97,NE,45,2.0,4.0,88,0.00,,,0.00,meteohub,2013-06-05 11:44:00,
2013-06-05 04:49:00,63.3,59.7,29.97,NE,45,2.0,4.0,88,0.00,,,0.00,meteohub,2013-06-05 11:49:00,
2013-06-05 04:54:00,63.3,59.7,29.97,North,0,2.0,4.0,88,0.00,,,0.00,meteohub,2013-06-05 11:54:00,
2013-06-05 04:59:00,63.3,59.7,29.97,North,0,2.0,4.0,88,0.00,,,0.00,meteohub,2013-06-05 11:59:00,
2013-06-05 05:04:00,63.3,59.7,29.97,North,0,0.0,4.0,88,0.00,,,0.00,meteohub,2013-06-05 12:04:00,
2013-06-05 05:09:00,63.1,59.5,29.98,East,90,2.0,4.0,88,0.00,,,0.00,meteohub,2013-06-05 12:09:00,
2013-06-05 05:14:00,63.3,59.7,29.97,NE,45,2.0,3.0,88,0.00,,,0.00,meteohub,2013-06-05 12:14:00,
2013-06-05 05:19:00,63.1,59.5,29.97,North,0,2.0,4.0,88,0.00,,,0.00,meteohub,2013-06-05 12:19:00,
2013-06-05 05:24:00,63.1,59.5,29.97,North,0,2.0,4.0,88,0.00,,,0.00,meteohub,2013-06-05 12:24:00,
2013-06-05 05:29:00,63.1,59.5,29.98,North,0,2.0,4.0,88,0.00,,,0.00,meteohub,2013-06-05 12:29:00,
2013-06-05 05:34:00,63.1,59.5,29.98,North,0,0.0,4.0,88,0.00,,,0.00,meteohub,2013-06-05 12:34:00,
2013-06-05 05:39:00,63.1,59.5,29.98,North,0,2.0,4.0,88,0.00,,,0.00,meteohub,2013-06-05 12:39:00,
2013-06-05 05:44:00,63.1,59.5,29.98,North,0,3.0,3.0,88,0.00,,,0.00,meteohub,2013-06-05 12:44:00,
2013-06-05 05:49:00,63.1,59.5,29.98,North,0,3.0,3.0,88,0.00,,,0.00,meteohub,2013-06-05 12:49:00,
2013-06-05 05:54:00,63.1,59.5,29.98,North,0,2.0,3.0,88,0.00,,,0.00,meteohub,2013-06-05 12:54:00,
2013-06-05 05:59:00,63.1,59.2,29.98,North,0,2.0,3.0,87,0.00,,,0.00,meteohub,2013-06-05 12:59:00,
2013-06-05 06:04:00,63.3,59.4,29.98,North,0,2.0,3.0,87,0.00,,,0.00,meteohub,2013-06-05 13:04:00,
2013-06-05 06:09:00,63.3,59.4,29.98,North,0,2.0,3.0,87,0.00,,,0.00,meteohub,2013-06-05 13:09:00,
2013-06-05 06:14:00,63.3,59.4,29.98,North,0,2.0,4.0,87,0.00,,,0.00,meteohub,2013-06-05 13:14:00,
2013-06-05 06:19:00,63.5,59.5,29.98,NW,315,2.0,4.0,87,0.00,,,0.00,meteohub,2013-06-05 13:19:00,
2013-06-05 06:24:00,63.5,59.5,29.98,NW,315,3.0,4.0,87,0.00,,,0.00,meteohub,2013-06-05 13:24:00,
2013-06-05 06:29:00,63.5,58.8,29.99,North,0,2.0,4.0,85,0.00,,,0.00,meteohub,2013-06-05 13:29:00,
2013-06-05 06:34:00,63.7,58.8,29.98,East,90,2.0,4.0,84,0.00,,,0.00,meteohub,2013-06-05 13:34:00,
2013-06-05 06:39:00,63.9,59.0,29.99,NE,45,2.0,4.0,84,0.00,,,0.00,meteohub,2013-06-05 13:39:00,
2013-06-05 06:44:00,63.9,59.0,29.98,NE,45,2.0,4.0,84,0.00,,,0.00,meteohub,2013-06-05 13:44:00,
2013-06-05 06:49:00,64.0,59.2,29.98,NE,45,2.0,4.0,84,0.00,,,0.00,meteohub,2013-06-05 13:49:00,
2013-06-05 06:54:00,64.0,59.2,29.99,NE,45,0.0,3.0,84,0.00,,,0.00,meteohub,2013-06-05 13:54:00,
2013-06-05 06:59:00,64.2,59.0,29.99,NE,45,2.0,3.0,83,0.00,,,0.00,meteohub,2013-06-05 13:59:00,
2013-06-05 07:04:00,64.4,58.1,29.99,NE,45,3.0,3.0,80,0.00,,,0.00,meteohub,2013-06-05 14:04:00,
2013-06-05 07:09:00,64.4,57.7,29.99,NE,45,1.0,4.0,79,0.00,,,0.00,meteohub,2013-06-05 14:09:00,
2013-06-05 07:14:00,64.6,57.9,29.99,NE,45,2.0,4.0,79,0.00,,,0.00,meteohub,2013-06-05 14:14:00,
2013-06-05 07:19:00,64.9,58.3,29.99,NE,45,2.0,4.0,79,0.00,,,0.00,meteohub,2013-06-05 14:19:00,
2013-06-05 07:24:00,65.1,58.1,29.99,NE,45,3.0,3.0,78,0.00,,,0.00,meteohub,2013-06-05 14:24:00,
2013-06-05 07:29:00,64.9,57.9,29.99,North,0,4.0,4.0,78,0.00,,,0.00,meteohub,2013-06-05 14:29:00,
2013-06-05 07:34:00,64.9,57.6,29.99,NNW,338,3.0,4.0,77,0.00,,,0.00,meteohub,2013-06-05 14:34:00,
2013-06-05 07:39:00,64.9,57.9,29.99,North,0,4.0,4.0,78,0.00,,,0.00,meteohub,2013-06-05 14:39:00,
2013-06-05 07:44:00,65.1,57.7,29.99,North,0,4.0,4.0,77,0.00,,,0.00,meteohub,2013-06-05 14:44:00,
2013-06-05 07:49:00,65.3,57.9,29.99,North,0,4.0,4.0,77,0.00,,,0.00,meteohub,2013-06-05 14:49:00,
2013-06-05 07:54:00,65.3,57.6,29.99,NW,315,3.0,4.0,76,0.00,,,0.00,meteohub,2013-06-05 14:54:00,
2013-06-05 07:59:00,65.7,57.9,30.00,NW,315,3.0,6.0,76,0.00,,,0.00,meteohub,2013-06-05 14:59:00,
2013-06-05 08:04:00,66.0,57.9,30.00,North,0,2.0,6.0,75,0.00,,,0.00,meteohub,2013-06-05 15:04:00,
2013-06-05 08:09:00,66.0,57.6,30.00,NW,315,4.0,6.0,74,0.00,,,0.00,meteohub,2013-06-05 15:09:00,
2013-06-05 08:15:00,66.2,57.7,30.00,West,270,4.0,6.0,74,0.00,,,0.00,meteohub,2013-06-05 15:15:00,
2013-06-05 08:20:00,66.4,57.9,30.01,NW,315,2.0,6.0,74,0.00,,,0.00,meteohub,2013-06-05 15:20:00,
2013-06-05 08:25:00,66.4,57.4,30.01,NW,315,3.0,6.0,73,0.00,,,0.00,meteohub,2013-06-05 15:25:00,
2013-06-05 08:30:00,66.7,57.7,30.00,North,0,3.0,6.0,73,0.00,,,0.00,meteohub,2013-06-05 15:30:00,
2013-06-05 08:35:00,66.7,57.4,30.01,NNE,23,3.0,6.0,72,0.00,,,0.00,meteohub,2013-06-05 15:35:00,
2013-06-05 08:40:00,67.3,57.9,30.01,North,0,2.0,6.0,72,0.00,,,0.00,meteohub,2013-06-05 15:40:00,
2013-06-05 08:45:00,67.8,57.7,30.01,NW,315,5.0,6.0,70,0.00,,,0.00,meteohub,2013-06-05 15:45:00,
2013-06-05 08:50:00,68.0,57.4,30.01,North,0,4.0,6.0,69,0.00,,,0.00,meteohub,2013-06-05 15:50:00,
2013-06-05 08:55:00,67.8,57.7,30.01,North,0,3.0,6.0,70,0.00,,,0.00,meteohub,2013-06-05 15:55:00,
2013-06-05 09:00:00,68.2,57.2,30.01,East,90,2.0,6.0,68,0.00,,,0.00,meteohub,2013-06-05 16:00:00,
2013-06-05 09:05:00,68.7,57.4,30.02,North,0,3.0,5.0,67,0.00,,,0.00,meteohub,2013-06-05 16:05:00,
2013-06-05 09:10:00,68.9,57.6,30.02,North,0,4.0,4.0,67,0.00,,,0.00,meteohub,2013-06-05 16:10:00,
2013-06-05 09:15:00,69.1,57.7,30.02,North,0,4.0,4.0,67,0.00,,,0.00,meteohub,2013-06-05 16:15:00,
2013-06-05 09:20:00,69.3,57.9,30.02,NW,315,6.0,6.0,67,0.00,,,0.00,meteohub,2013-06-05 16:20:00,
2013-06-05 09:25:00,68.9,57.9,30.02,NW,315,4.0,6.0,68,0.00,,,0.00,meteohub,2013-06-05 16:25:00,
2013-06-05 09:30:00,69.1,58.1,30.02,NW,315,8.0,8.0,68,0.00,,,0.00,meteohub,2013-06-05 16:30:00,
2013-06-05 09:35:00,68.9,58.3,30.02,NW,315,4.0,8.0,69,0.00,,,0.00,meteohub,2013-06-05 16:35:00,
2013-06-05 09:40:00,69.3,58.3,30.02,North,0,4.0,8.0,68,0.00,,,0.00,meteohub,2013-06-05 16:40:00,
2013-06-05 09:45:00,69.8,57.9,30.02,NW,315,3.0,8.0,66,0.00,,,0.00,meteohub,2013-06-05 16:45:00,
2013-06-05 09:50:00,70.5,58.1,30.02,WNW,293,5.0,6.0,65,0.00,,,0.00,meteohub,2013-06-05 16:50:00,
2013-06-05 09:55:00,70.5,58.1,30.02,West,270,5.0,8.0,65,0.00,,,0.00,meteohub,2013-06-05 16:55:00,
2013-06-05 10:00:00,72.1,58.8,30.02,North,0,3.0,10.0,63,0.00,,,0.00,meteohub,2013-06-05 17:00:00,
2013-06-05 10:05:00,72.5,57.4,30.01,NW,315,6.0,10.0,59,0.00,,,0.00,meteohub,2013-06-05 17:05:00,
2013-06-05 10:10:00,72.0,57.7,30.01,WNW,293,4.0,10.0,61,0.00,,,0.00,meteohub,2013-06-05 17:10:00,
2013-06-05 10:15:00,72.3,57.7,30.01,NW,315,4.0,10.0,60,0.00,,,0.00,meteohub,2013-06-05 17:15:00,
2013-06-05 10:20:00,72.9,58.1,30.01,South,180,2.0,10.0,60,0.00,,,0.00,meteohub,2013-06-05 17:20:00,
2013-06-05 10:25:00,73.2,57.6,30.01,NW,315,4.0,6.0,58,0.00,,,0.00,meteohub,2013-06-05 17:25:00,
2013-06-05 10:30:00,74.3,59.0,30.01,North,0,4.0,6.0,59,0.00,,,0.00,meteohub,2013-06-05 17:30:00,
2013-06-05 10:35:00,76.3,58.5,30.01,NW,315,4.0,6.0,54,0.00,,,0.00,meteohub,2013-06-05 17:35:00,
2013-06-05 10:40:00,77.5,58.5,30.01,NE,45,3.0,6.0,52,0.00,,,0.00,meteohub,2013-06-05 17:40:00,
2013-06-05 10:45:00,78.4,57.7,30.01,North,0,5.0,6.0,49,0.00,,,0.00,meteohub,2013-06-05 17:45:00,
2013-06-05 10:50:00,75.7,57.4,30.01,NW,315,4.0,9.0,53,0.00,,,0.00,meteohub,2013-06-05 17:50:00,
2013-06-05 10:55:00,75.0,58.3,30.01,North,0,6.0,9.0,56,0.00,,,0.00,meteohub,2013-06-05 17:55:00,
2013-06-05 11:00:00,74.8,58.1,30.01,NW,315,4.0,9.0,56,0.00,,,0.00,meteohub,2013-06-05 18:00:00,
2013-06-05 11:05:00,75.6,58.8,30.01,NW,315,5.0,8.0,56,0.00,,,0.00,meteohub,2013-06-05 18:05:00,
2013-06-05 11:10:00,75.7,59.4,30.01,North,0,4.0,9.0,57,0.00,,,0.00,meteohub,2013-06-05 18:10:00,
2013-06-05 11:15:00,75.7,59.0,30.01,North,0,5.0,10.0,56,0.00,,,0.00,meteohub,2013-06-05 18:15:00,
2013-06-05 11:20:00,75.6,59.2,30.01,NW,315,8.0,10.0,57,0.00,,,0.00,meteohub,2013-06-05 18:20:00,
2013-06-05 11:25:00,74.3,59.9,30.01,NE,45,7.0,11.0,61,0.00,,,0.00,meteohub,2013-06-05 18:25:00,
2013-06-05 11:30:00,73.0,58.8,30.01,NW,315,17.0,17.0,61,0.00,,,0.00,meteohub,2013-06-05 18:30:00,
2013-06-05 11:35:00,72.5,60.1,30.01,NW,315,7.0,17.0,65,0.00,,,0.00,meteohub,2013-06-05 18:35:00,
2013-06-05 11:40:00,72.1,58.8,30.01,North,0,10.0,17.0,63,0.00,,,0.00,meteohub,2013-06-05 18:40:00,
2013-06-05 11:45:00,72.9,59.9,30.01,North,0,8.0,17.0,64,0.00,,,0.00,meteohub,2013-06-05 18:45:00,
2013-06-05 11:50:00,72.0,59.2,30.01,NW,315,16.0,16.0,64,0.00,,,0.00,meteohub,2013-06-05 18:50:00,
2013-06-05 11:55:00,71.4,59.5,30.01,NW,315,13.0,16.0,66,0.00,,,0.00,meteohub,2013-06-05 18:55:00,
2013-06-05 12:00:00,71.2,59.4,30.01,WNW,293,10.0,16.0,66,0.00,,,0.00,meteohub,2013-06-05 19:00:00,
2013-06-05 12:05:00,71.1,59.2,30.01,NW,315,12.0,16.0,66,0.00,,,0.00,meteohub,2013-06-05 19:05:00,
2013-06-05 12:10:00,71.1,59.2,30.01,NW,315,8.0,15.0,66,0.00,,,0.00,meteohub,2013-06-05 19:10:00,
2013-06-05 12:15:00,71.8,59.0,30.01,NW,315,9.0,14.0,64,0.00,,,0.00,meteohub,2013-06-05 19:15:00,
2013-06-05 12:20:00,71.2,58.8,30.01,NW,315,15.0,15.0,65,0.00,,,0.00,meteohub,2013-06-05 19:20:00,
2013-06-05 12:26:00,71.4,59.0,30.01,NW,315,11.0,16.0,65,0.00,,,0.00,meteohub,2013-06-05 19:26:00,
2013-06-05 12:30:00,71.4,59.0,30.01,West,270,10.0,16.0,65,0.00,,,0.00,meteohub,2013-06-05 19:30:00,
2013-06-05 12:35:00,70.7,59.2,30.01,North,0,11.0,16.0,67,0.00,,,0.00,meteohub,2013-06-05 19:35:00,
2013-06-05 12:40:00,71.1,58.6,30.00,NW,315,15.0,15.0,65,0.00,,,0.00,meteohub,2013-06-05 19:40:00,
2013-06-05 12:46:00,70.7,58.8,30.00,NW,315,14.0,15.0,66,0.00,,,0.00,meteohub,2013-06-05 19:46:00,
2013-06-05 12:51:00,70.7,58.8,30.00,WNW,293,15.0,16.0,66,0.00,,,0.00,meteohub,2013-06-05 19:51:00,
2013-06-05 12:56:00,70.5,59.0,30.00,West,270,12.0,16.0,67,0.00,,,0.00,meteohub,2013-06-05 19:56:00,
2013-06-05 13:01:00,70.9,59.4,30.00,NW,315,11.0,17.0,67,0.00,,,0.00,meteohub,2013-06-05 20:01:00,
2013-06-05 13:06:00,71.4,59.5,30.00,WNW,293,10.0,18.0,66,0.00,,,0.00,meteohub,2013-06-05 20:06:00,
2013-06-05 13:11:00,71.8,59.4,29.99,West,270,11.0,18.0,65,0.00,,,0.00,meteohub,2013-06-05 20:11:00,
2013-06-05 13:16:00,72.3,59.0,29.99,North,0,9.0,15.0,63,0.00,,,0.00,meteohub,2013-06-05 20:16:00,
2013-06-05 13:21:00,72.3,59.0,29.99,NW,315,10.0,15.0,63,0.00,,,0.00,meteohub,2013-06-05 20:21:00,
2013-06-05 13:26:00,72.7,60.3,29.99,WNW,293,14.0,15.0,65,0.00,,,0.00,meteohub,2013-06-05 20:26:00,
2013-06-05 13:31:00,72.5,59.2,29.99,West,270,15.0,15.0,63,0.00,,,0.00,meteohub,2013-06-05 20:31:00,
2013-06-05 13:36:00,73.6,59.7,29.99,NW,315,8.0,15.0,62,0.00,,,0.00,meteohub,2013-06-05 20:36:00,
2013-06-05 13:41:00,73.6,59.7,29.98,West,270,7.0,15.0,62,0.00,,,0.00,meteohub,2013-06-05 20:41:00,
2013-06-05 13:46:00,74.5,59.7,29.98,NW,315,10.0,15.0,60,0.00,,,0.00,meteohub,2013-06-05 20:46:00,
2013-06-05 13:51:00,73.4,59.2,29.98,NW,315,14.0,14.0,61,0.00,,,0.00,meteohub,2013-06-05 20:51:00,
2013-06-05 13:56:00,72.9,59.0,29.98,NW,315,10.0,17.0,62,0.00,,,0.00,meteohub,2013-06-05 20:56:00,
2013-06-05 14:01:00,73.6,59.4,29.98,NW,315,10.0,17.0,61,0.00,,,0.00,meteohub,2013-06-05 21:01:00,
2013-06-05 14:06:00,73.6,59.4,29.98,West,270,8.0,15.0,61,0.00,,,0.00,meteohub,2013-06-05 21:06:00,
2013-06-05 14:11:00,73.8,59.5,29.97,NW,315,8.0,14.0,61,0.00,,,0.00,meteohub,2013-06-05 21:11:00,
2013-06-05 14:16:00,73.9,59.2,29.97,North,0,14.0,14.0,60,0.00,,,0.00,meteohub,2013-06-05 21:16:00,
2013-06-05 14:21:00,72.9,59.0,29.97,NW,315,13.0,14.0,62,0.00,,,0.00,meteohub,2013-06-05 21:21:00,
2013-06-05 14:26:00,72.9,58.6,29.96,West,270,14.0,16.0,61,0.00,,,0.00,meteohub,2013-06-05 21:26:00,
2013-06-05 14:31:00,72.1,59.4,29.96,WNW,293,9.0,17.0,64,0.00,,,0.00,meteohub,2013-06-05 21:31:00,
2013-06-05 14:36:00,73.6,59.4,29.96,West,270,10.0,17.0,61,0.00,,,0.00,meteohub,2013-06-05 21:36:00,
2013-06-05 14:41:00,73.0,58.8,29.96,West,270,15.0,17.0,61,0.00,,,0.00,meteohub,2013-06-05 21:41:00,
2013-06-05 14:46:00,72.1,58.8,29.96,NW,315,13.0,15.0,63,0.00,,,0.00,meteohub,2013-06-05 21:46:00,
2013-06-05 14:51:00,72.9,59.5,29.96,West,270,12.0,17.0,63,0.00,,,0.00,meteohub,2013-06-05 21:51:00,
2013-06-05 14:56:00,73.6,59.4,29.96,NW,315,11.0,17.0,61,0.00,,,0.00,meteohub,2013-06-05 21:56:00,
2013-06-05 15:01:00,73.2,59.4,29.96,West,270,14.0,17.0,62,0.00,,,0.00,meteohub,2013-06-05 22:01:00,
2013-06-05 15:06:00,72.5,59.5,29.96,North,0,11.0,17.0,64,0.00,,,0.00,meteohub,2013-06-05 22:06:00,
2013-06-05 15:11:00,72.5,59.2,29.95,NW,315,10.0,17.0,63,0.00,,,0.00,meteohub,2013-06-05 22:11:00,
2013-06-05 15:16:00,72.9,59.5,29.95,WSW,248,18.0,18.0,63,0.00,,,0.00,meteohub,2013-06-05 22:16:00,
2013-06-05 15:21:00,72.5,59.5,29.95,NW,315,14.0,18.0,64,0.00,,,0.00,meteohub,2013-06-05 22:21:00,
2013-06-05 15:26:00,72.1,59.4,29.95,West,270,15.0,18.0,64,0.00,,,0.00,meteohub,2013-06-05 22:26:00,
2013-06-05 15:32:00,72.3,59.0,29.95,NW,315,15.0,18.0,63,0.00,,,0.00,meteohub,2013-06-05 22:32:00,
2013-06-05 15:37:00,72.7,59.4,29.94,NW,315,15.0,17.0,63,0.00,,,0.00,meteohub,2013-06-05 22:37:00,
2013-06-05 15:42:00,72.3,59.9,29.94,NW,315,12.0,17.0,65,0.00,,,0.00,meteohub,2013-06-05 22:42:00,
2013-06-05 15:47:00,72.3,60.3,29.94,NW,315,11.0,17.0,66,0.00,,,0.00,meteohub,2013-06-05 22:47:00,
2013-06-05 15:52:00,72.0,60.4,29.94,NW,315,11.0,17.0,67,0.00,,,0.00,meteohub,2013-06-05 22:52:00,
2013-06-05 15:57:00,72.7,60.6,29.94,West,270,11.0,17.0,66,0.00,,,0.00,meteohub,2013-06-05 22:57:00,
2013-06-05 16:02:00,73.8,59.9,29.94,NW,315,11.0,17.0,62,0.00,,,0.00,meteohub,2013-06-05 23:02:00,
2013-06-05 16:07:00,73.8,59.9,29.94,West,270,11.0,17.0,62,0.00,,,0.00,meteohub,2013-06-05 23:07:00,
2013-06-05 16:12:00,73.2,60.3,29.94,NW,315,9.0,14.0,64,0.00,,,0.00,meteohub,2013-06-05 23:12:00,
2013-06-05 16:17:00,73.2,60.3,29.94,NW,315,8.0,15.0,64,0.00,,,0.00,meteohub,2013-06-05 23:17:00,
2013-06-05 16:22:00,73.8,60.4,29.94,North,0,3.0,15.0,63,0.00,,,0.00,meteohub,2013-06-05 23:22:00,
2013-06-05 16:27:00,76.1,60.3,29.94,North,0,6.0,13.0,58,0.00,,,0.00,meteohub,2013-06-05 23:27:00,
2013-06-05 16:32:00,76.6,59.2,29.94,NW,315,8.0,12.0,55,0.00,,,0.00,meteohub,2013-06-05 23:32:00,
2013-06-05 16:37:00,77.4,58.8,29.94,North,0,8.0,10.0,53,0.00,,,0.00,meteohub,2013-06-05 23:37:00,
2013-06-05 16:42:00,77.4,59.4,29.93,North,0,4.0,10.0,54,0.00,,,0.00,meteohub,2013-06-05 23:42:00,
2013-06-05 16:47:00,76.6,59.2,29.94,North,0,7.0,11.0,55,0.00,,,0.00,meteohub,2013-06-05 23:47:00,
2013-06-05 16:52:00,76.6,59.2,29.94,NW,315,7.0,11.0,55,0.00,,,0.00,meteohub,2013-06-05 23:52:00,
2013-06-05 16:57:00,76.3,59.4,29.93,NE,45,4.0,11.0,56,0.00,,,0.00,meteohub,2013-06-05 23:57:00,
2013-06-05 17:02:00,76.3,59.4,29.93,North,0,4.0,9.0,56,0.00,,,0.00,meteohub,2013-06-06 00:02:00,
2013-06-05 17:07:00,75.9,58.6,29.93,North,0,9.0,9.0,55,0.00,,,0.00,meteohub,2013-06-06 00:07:00,
2013-06-05 17:12:00,75.4,58.6,29.93,NE,45,7.0,9.0,56,0.00,,,0.00,meteohub,2013-06-06 00:12:00,
2013-06-05 17:17:00,74.5,59.2,29.93,North,0,8.0,14.0,59,0.00,,,0.00,meteohub,2013-06-06 00:17:00,
2013-06-05 17:22:00,74.5,59.2,29.93,North,0,6.0,14.0,59,0.00,,,0.00,meteohub,2013-06-06 00:22:00,
2013-06-05 17:27:00,74.8,59.0,29.93,NNE,23,9.0,14.0,58,0.00,,,0.00,meteohub,2013-06-06 00:27:00,
2013-06-05 17:32:00,75.0,58.8,29.93,NW,315,11.0,12.0,57,0.00,,,0.00,meteohub,2013-06-06 00:32:00,
2013-06-05 17:37:00,74.8,59.0,29.93,NNE,23,7.0,11.0,58,0.00,,,0.00,meteohub,2013-06-06 00:37:00,
2013-06-05 17:42:00,74.8,59.0,29.93,NNE,23,6.0,11.0,58,0.00,,,0.00,meteohub,2013-06-06 00:42:00,
2013-06-05 17:47:00,74.7,58.8,29.93,North,0,8.0,11.0,58,0.00,,,0.00,meteohub,2013-06-06 00:47:00,
2013-06-05 17:52:00,73.8,59.0,29.93,North,0,5.0,8.0,60,0.00,,,0.00,meteohub,2013-06-06 00:52:00,
2013-06-05 17:57:00,73.6,59.4,29.93,North,0,6.0,9.0,61,0.00,,,0.00,meteohub,2013-06-06 00:57:00,
2013-06-05 18:02:00,73.4,59.2,29.93,NNE,23,5.0,9.0,61,0.00,,,0.00,meteohub,2013-06-06 01:02:00,
2013-06-05 18:07:00,72.9,59.0,29.93,North,0,4.0,9.0,62,0.00,,,0.00,meteohub,2013-06-06 01:07:00,
2013-06-05 18:12:00,72.9,59.5,29.93,North,0,4.0,11.0,63,0.00,,,0.00,meteohub,2013-06-06 01:12:00,
2013-06-05 18:17:00,72.5,59.2,29.93,NE,45,6.0,11.0,63,0.00,,,0.00,meteohub,2013-06-06 01:17:00,
2013-06-05 18:22:00,72.0,59.5,29.93,North,0,6.0,11.0,65,0.00,,,0.00,meteohub,2013-06-06 01:22:00,
2013-06-05 18:27:00,71.4,59.5,29.93,North,0,8.0,10.0,66,0.00,,,0.00,meteohub,2013-06-06 01:27:00,
2013-06-05 18:32:00,71.2,59.4,29.94,North,0,11.0,11.0,66,0.00,,,0.00,meteohub,2013-06-06 01:32:00,
2013-06-05 18:37:00,70.7,59.2,29.93,North,0,11.0,12.0,67,0.00,,,0.00,meteohub,2013-06-06 01:37:00,
2013-06-05 18:42:00,70.7,59.5,29.94,NNE,23,8.0,12.0,68,0.00,,,0.00,meteohub,2013-06-06 01:42:00,
2013-06-05 18:47:00,70.5,59.4,29.94,North,0,5.0,12.0,68,0.00,,,0.00,meteohub,2013-06-06 01:47:00,
2013-06-05 18:52:00,70.3,59.4,29.94,NE,45,7.0,11.0,68,0.00,,,0.00,meteohub,2013-06-06 01:52:00,
2013-06-05 18:57:00,70.0,59.4,29.94,NNE,23,6.0,8.0,69,0.00,,,0.00,meteohub,2013-06-06 01:57:00,
2013-06-05 19:02:00,69.4,59.2,29.94,NNW,338,4.0,9.0,70,0.00,,,0.00,meteohub,2013-06-06 02:02:00,
2013-06-05 19:07:00,69.3,59.5,29.94,North,0,4.0,9.0,71,0.00,,,0.00,meteohub,2013-06-06 02:07:00,
2013-06-05 19:12:00,68.9,59.5,29.94,North,0,7.0,8.0,72,0.00,,,0.00,meteohub,2013-06-06 02:12:00,
2013-06-05 19:17:00,68.5,59.5,29.94,North,0,9.0,9.0,73,0.00,,,0.00,meteohub,2013-06-06 02:17:00,
2013-06-05 19:22:00,68.0,59.4,29.95,North,0,4.0,11.0,74,0.00,,,0.00,meteohub,2013-06-06 02:22:00,
2013-06-05 19:27:00,67.5,59.2,29.94,NE,45,6.0,11.0,75,0.00,,,0.00,meteohub,2013-06-06 02:27:00,
2013-06-05 19:32:00,66.9,59.5,29.95,North,0,4.0,11.0,77,0.00,,,0.00,meteohub,2013-06-06 02:32:00,
2013-06-05 19:37:00,66.6,59.5,29.95,North,0,4.0,9.0,78,0.00,,,0.00,meteohub,2013-06-06 02:37:00,
2013-06-05 19:42:00,66.0,59.4,29.95,East,90,4.0,8.0,79,0.00,,,0.00,meteohub,2013-06-06 02:42:00,
2013-06-05 19:47:00,65.3,59.4,29.95,NE,45,5.0,6.0,81,0.00,,,0.00,meteohub,2013-06-06 02:47:00,
2013-06-05 19:52:00,64.8,59.2,29.95,NNE,23,6.0,6.0,82,0.00,,,0.00,meteohub,2013-06-06 02:52:00,
2013-06-05 19:57:00,64.2,59.4,29.95,NE,45,4.0,8.0,84,0.00,,,0.00,meteohub,2013-06-06 02:57:00,
2013-06-05 20:02:00,63.9,59.0,29.96,NE,45,5.0,8.0,84,0.00,,,0.00,meteohub,2013-06-06 03:02:00,
2013-06-05 20:07:00,63.5,58.8,29.95,North,0,4.0,8.0,85,0.00,,,0.00,meteohub,2013-06-06 03:07:00,
2013-06-05 20:12:00,63.3,59.0,29.95,NE,45,8.0,8.0,86,0.00,,,0.00,meteohub,2013-06-06 03:12:00,
2013-06-05 20:18:00,63.1,58.8,29.95,North,0,3.0,9.0,86,0.00,,,0.00,meteohub,2013-06-06 03:18:00,
2013-06-05 20:22:00,63.0,59.0,29.95,North,0,3.0,9.0,87,0.00,,,0.00,meteohub,2013-06-06 03:22:00,
2013-06-05 20:27:00,62.8,59.2,29.96,NNE,23,4.0,9.0,88,0.00,,,0.00,meteohub,2013-06-06 03:27:00,
2013-06-05 20:33:00,62.6,59.0,29.96,North,0,4.0,7.0,88,0.00,,,0.00,meteohub,2013-06-06 03:33:00,
2013-06-05 20:38:00,62.6,59.0,29.96,North,0,4.0,6.0,88,0.00,,,0.00,meteohub,2013-06-06 03:38:00,
2013-06-05 20:43:00,62.4,58.8,29.96,North,0,3.0,7.0,88,0.00,,,0.00,meteohub,2013-06-06 03:43:00,
2013-06-05 20:48:00,62.2,59.0,29.96,NE,45,3.0,7.0,89,0.00,,,0.00,meteohub,2013-06-06 03:48:00,
2013-06-05 20:53:00,62.2,59.0,29.96,NE,45,4.0,7.0,89,0.00,,,0.00,meteohub,2013-06-06 03:53:00,
2013-06-05 20:58:00,62.1,58.8,29.97,North,0,2.0,6.0,89,0.00,,,0.00,meteohub,2013-06-06 03:58:00,
2013-06-05 21:01:00,62.1,58.8,29.97,NNE,23,7.0,7.0,89,0.00,,,0.00,meteohub,2013-06-06 04:01:00,
2013-06-05 21:02:00,62.1,58.8,29.97,NNE,23,5.0,6.0,89,0.00,,,0.00,meteohub,2013-06-06 04:02:00,
2013-06-05 21:03:00,62.1,58.8,29.97,NNE,23,3.0,6.0,89,0.00,,,0.00,meteohub,2013-06-06 04:03:00,
2013-06-05 21:08:00,61.9,59.0,29.97,NNE,23,3.0,7.0,90,0.00,,,0.00,meteohub,2013-06-06 04:08:00,
2013-06-05 21:13:00,61.7,58.8,29.97,NE,45,2.0,7.0,90,0.00,,,0.00,meteohub,2013-06-06 04:13:00,
2013-06-05 21:18:00,61.7,59.0,29.97,North,0,2.0,7.0,91,0.00,,,0.00,meteohub,2013-06-06 04:18:00,
2013-06-05 21:23:00,61.7,59.0,29.97,NE,45,3.0,8.0,91,0.00,,,0.00,meteohub,2013-06-06 04:23:00,
2013-06-05 21:28:00,61.7,59.0,29.97,NE,45,4.0,8.0,91,0.00,,,0.00,meteohub,2013-06-06 04:28:00,
2013-06-05 21:33:00,61.7,59.0,29.97,North,0,4.0,6.0,91,0.00,,,0.00,meteohub,2013-06-06 04:33:00,
2013-06-05 21:38:00,61.7,59.0,29.97,North,0,2.0,6.0,91,0.00,,,0.00,meteohub,2013-06-06 04:38:00,
2013-06-05 21:43:00,61.5,58.8,29.97,North,0,3.0,6.0,91,0.00,,,0.00,meteohub,2013-06-06 04:43:00,
2013-06-05 21:48:00,61.5,59.2,29.97,NNE,23,7.0,7.0,92,0.00,,,0.00,meteohub,2013-06-06 04:48:00,
2013-06-05 21:53:00,61.5,59.2,29.98,North,0,6.0,7.0,92,0.00,,,0.00,meteohub,2013-06-06 04:53:00,
2013-06-05 21:58:00,61.5,59.2,29.98,North,0,4.0,7.0,92,0.00,,,0.00,meteohub,2013-06-06 04:58:00,
2013-06-05 22:03:00,61.3,59.0,29.97,North,0,4.0,8.0,92,0.00,,,0.00,meteohub,2013-06-06 05:03:00,
2013-06-05 22:08:00,61.3,59.0,29.98,North,0,5.0,8.0,92,0.00,,,0.00,meteohub,2013-06-06 05:08:00,
2013-06-05 22:13:00,61.2,58.8,29.98,North,0,3.0,8.0,92,0.00,,,0.00,meteohub,2013-06-06 05:13:00,
2013-06-05 22:18:00,61.0,58.6,29.97,NE,45,2.0,5.0,92,0.00,,,0.00,meteohub,2013-06-06 05:18:00,
2013-06-05 22:23:00,61.0,59.0,29.97,North,0,3.0,5.0,93,0.00,,,0.00,meteohub,2013-06-06 05:23:00,
2013-06-05 22:28:00,60.8,58.5,29.97,NE,45,1.0,6.0,92,0.00,,,0.00,meteohub,2013-06-06 05:28:00,
2013-06-05 22:33:00,60.6,58.6,29.97,North,0,3.0,6.0,93,0.00,,,0.00,meteohub,2013-06-06 05:33:00,
2013-06-05 22:38:00,60.8,59.0,29.97,North,0,3.0,4.0,94,0.00,,,0.00,meteohub,2013-06-06 05:38:00,
2013-06-05 22:43:00,60.8,59.0,29.97,NE,45,2.0,5.0,94,0.00,,,0.00,meteohub,2013-06-06 05:43:00,
2013-06-05 22:48:00,60.6,58.8,29.97,NE,45,1.0,5.0,94,0.00,,,0.00,meteohub,2013-06-06 05:48:00,
2013-06-05 22:53:00,60.4,58.6,29.97,East,90,2.0,5.0,94,0.00,,,0.00,meteohub,2013-06-06 05:53:00,
2013-06-05 22:58:00,60.3,58.5,29.97,East,90,2.0,4.0,94,0.00,,,0.00,meteohub,2013-06-06 05:58:00,
2013-06-05 23:03:00,60.3,58.8,29.97,NE,45,2.0,4.0,95,0.00,,,0.00,meteohub,2013-06-06 06:03:00,
2013-06-05 23:08:00,60.1,58.6,29.97,NE,45,3.0,3.0,95,0.00,,,0.00,meteohub,2013-06-06 06:08:00,
2013-06-05 23:13:00,60.1,58.6,29.97,NE,45,2.0,3.0,95,0.00,,,0.00,meteohub,2013-06-06 06:13:00,
2013-06-05 23:18:00,60.3,59.2,29.97,NE,45,2.0,3.0,96,0.00,,,0.00,meteohub,2013-06-06 06:18:00,
2013-06-05 23:23:00,60.6,59.5,29.97,NNE,23,2.0,3.0,96,0.00,,,0.00,meteohub,2013-06-06 06:23:00,
2013-06-05 23:29:00,60.8,59.7,29.97,NNE,23,0.0,4.0,96,0.00,,,0.00,meteohub,2013-06-06 06:29:00,
2013-06-05 23:34:00,60.8,59.7,29.97,NW,315,6.0,6.0,96,0.00,,,0.00,meteohub,2013-06-06 06:34:00,
2013-06-05 23:39:00,61.0,59.9,29.97,NW,315,2.0,4.0,96,0.00,,,0.00,meteohub,2013-06-06 06:39:00,
2013-06-05 23:44:00,61.0,59.5,29.96,North,0,2.0,6.0,95,0.00,,,0.00,meteohub,2013-06-06 06:44:00,
2013-06-05 23:49:00,61.0,59.5,29.96,NNE,23,1.0,6.0,95,0.00,,,0.00,meteohub,2013-06-06 06:49:00,
2013-06-05 23:54:00,61.0,59.5,29.96,NNE,23,2.0,5.0,95,0.00,,,0.00,meteohub,2013-06-06 06:54:00,
2013-06-05 23:59:00,61.0,59.2,29.96,NNE,23,1.0,4.0,94,0.00,,,0.00,meteohub,2013-06-06 06:59:00,